| time (UTC) | temp C | wind direction | speed KPH | gust KPH | rain 1hr cm | rain 24hr cm | rain mn cm | humidity % | barometer mb |
| 20260507111512 | 8 | 340 | 3.2 | 0.0 | 0.00 | 0.00 | 0.00 | 82 | 1019.7 |
| 20260507110037 | 8 | 355 | 3.2 | 0.0 | 0.00 | 0.00 | 0.00 | 82 | 1019.7 |
| 20260507104502 | 8 | 15 | 3.2 | 0.0 | 0.00 | 0.00 | 0.00 | 81 | 1019.8 |
| 20260507103033 | 8 | 355 | 4.8 | 0.0 | 0.00 | 0.00 | 0.00 | 80 | 1020.0 |
| 20260507101601 | 8 | 323 | 4.8 | 0.0 | 0.00 | 0.00 | 0.00 | 80 | 1020.1 |
| 20260507100006 | 8 | 344 | 4.8 | 0.0 | 0.00 | 0.00 | 0.00 | 81 | 1020.1 |
| 20260507094530 | 9 | 324 | 6.4 | 0.0 | 0.00 | 0.00 | 0.00 | 80 | 1020.1 |
| 20260507093055 | 9 | 335 | 6.4 | 0.0 | 0.00 | 0.00 | 0.00 | 80 | 1020.1 |
| 20260507091513 | 9 | 19 | 6.4 | 0.0 | 0.00 | 0.00 | 0.00 | 81 | 1020.3 |
| 20260507090055 | 10 | 343 | 4.8 | 0.0 | 0.00 | 0.00 | 0.00 | 81 | 1020.4 |
| 20260507084512 | 10 | 342 | 4.8 | 0.0 | 0.00 | 0.00 | 0.00 | 80 | 1020.3 |
| 20260507083026 | 10 | 323 | 4.8 | 0.0 | 0.00 | 0.00 | 0.00 | 80 | 1020.4 |
| 20260507081546 | 10 | 355 | 4.8 | 0.0 | 0.00 | 0.00 | 0.00 | 79 | 1020.3 |
| 20260507080017 | 10 | 306 | 4.8 | 0.0 | 0.00 | 0.00 | 0.00 | 80 | 1020.4 |
| 20260507074532 | 10 | 360 | 3.2 | 0.0 | 0.00 | 0.00 | 0.00 | 81 | 1020.3 |
| 20260507073009 | 10 | 355 | 4.8 | 0.0 | 0.00 | 0.00 | 0.00 | 82 | 1020.1 |
| 20260507071532 | 10 | 10 | 4.8 | 0.0 | 0.00 | 0.00 | 0.00 | 83 | 1020.2 |
| 20260507070053 | 10 | 288 | 4.8 | 0.0 | 0.00 | 0.00 | 0.00 | 84 | 1020.1 |
| 20260507064518 | 10 | 360 | 3.2 | 0.0 | 0.00 | 0.00 | 0.00 | 84 | 1020.2 |
| 20260507063106 | 10 | 334 | 3.2 | 0.0 | 0.00 | 0.00 | 0.00 | 83 | 1020.1 |
| 20260507061531 | 11 | 329 | 3.2 | 0.0 | 0.00 | 0.00 | 0.00 | 83 | 1020.2 |
| 20260507060035 | 11 | 339 | 3.2 | 0.0 | 0.00 | 0.00 | 0.00 | 83 | 1020.2 |
| 20260507054509 | 11 | 355 | 1.6 | 0.0 | 0.00 | 0.00 | 0.00 | 83 | 1020.3 |
| 20260507053033 | 11 | 329 | 4.8 | 0.0 | 0.00 | 0.00 | 0.00 | 82 | 1020.4 |
| 20260507051555 | 11 | 315 | 3.2 | 0.0 | 0.00 | 0.00 | 0.00 | 82 | 1020.4 |
| 20260507050020 | 11 | 337 | 4.8 | 0.0 | 0.00 | 0.00 | 0.00 | 82 | 1020.4 |
| 20260507044537 | 11 | 317 | 4.8 | 0.0 | 0.00 | 0.00 | 0.00 | 81 | 1020.3 |
| 20260507043008 | 11 | 331 | 4.8 | 0.0 | 0.00 | 0.00 | 0.00 | 81 | 1020.3 |
| 20260507041549 | 11 | 325 | 3.2 | 0.0 | 0.00 | 0.00 | 0.00 | 80 | 1020.3 |
| 20260507040018 | 11 | 296 | 6.4 | 0.0 | 0.00 | 0.00 | 0.00 | 80 | 1020.2 |
| 20260507034542 | 11 | 340 | 6.4 | 0.0 | 0.00 | 0.00 | 0.00 | 79 | 1020.1 |
| 20260507033013 | 11 | 311 | 6.4 | 0.0 | 0.00 | 0.00 | 0.00 | 79 | 1020.0 |
| 20260507031538 | 11 | 333 | 3.2 | 0.0 | 0.00 | 0.00 | 0.00 | 80 | 1019.9 |
| 20260507030048 | 11 | 19 | 8.0 | 0.0 | 0.00 | 0.00 | 0.00 | 80 | 1019.8 |
| 20260507024522 | 12 | 5 | 8.0 | 0.0 | 0.00 | 0.00 | 0.00 | 79 | 1019.7 |
| 20260507023049 | 12 | 311 | 9.7 | 0.0 | 0.00 | 0.00 | 0.00 | 79 | 1019.6 |
| 20260507021513 | 12 | 299 | 9.7 | 0.0 | 0.00 | 0.00 | 0.00 | 78 | 1019.6 |
| 20260507020033 | 12 | 302 | 9.7 | 0.0 | 0.00 | 0.00 | 0.00 | 77 | 1019.6 |
| 20260507014554 | 12 | 332 | 9.7 | 0.0 | 0.00 | 0.00 | 0.00 | 78 | 1019.6 |
| 20260507013015 | 12 | 317 | 6.4 | 0.0 | 0.00 | 0.00 | 0.00 | 78 | 1019.6 |
| 20260507011526 | 12 | 344 | 9.7 | 0.0 | 0.00 | 0.00 | 0.00 | 78 | 1019.8 |
| 20260507010042 | 12 | 11 | 9.7 | 0.0 | 0.00 | 0.00 | 0.00 | 77 | 1019.9 |
| 20260507004608 | 12 | 332 | 8.0 | 0.0 | 0.00 | 0.00 | 0.00 | 78 | 1019.9 |
| 20260507003032 | 13 | 300 | 8.0 | 0.0 | 0.00 | 0.00 | 0.00 | 77 | 1019.9 |
| 20260507001605 | 13 | 343 | 11.3 | 0.0 | 0.00 | 0.00 | 0.00 | 77 | 1019.6 |
| 20260507000058 | 13 | 322 | 8.0 | 0.0 | 0.00 | 0.00 | 0.00 | 77 | 1019.6 |
| 20260506234609 | 13 | 360 | 6.4 | 0.0 | 0.00 | 0.00 | 0.00 | 78 | 1019.6 |
| 20260506233024 | 13 | 340 | 11.3 | 0.0 | 0.00 | 0.00 | 0.00 | 77 | 1019.6 |
| 20260506231540 | 13 | 322 | 9.7 | 0.0 | 0.00 | 0.00 | 0.00 | 76 | 1019.6 |
| 20260506230056 | 14 | 312 | 9.7 | 0.0 | 0.00 | 0.00 | 0.00 | 76 | 1019.6 |
| 20260506224514 | 14 | 313 | 9.7 | 0.0 | 0.00 | 0.00 | 0.00 | 75 | 1019.8 |
| 20260506223042 | 14 | 24 | 9.7 | 0.0 | 0.00 | 0.00 | 0.00 | 74 | 1019.8 |
| 20260506221507 | 14 | 311 | 8.0 | 0.0 | 0.00 | 0.00 | 0.00 | 74 | 1019.9 |
| 20260506220035 | 14 | 5 | 8.0 | 0.0 | 0.00 | 0.00 | 0.00 | 74 | 1019.7 |
| 20260506214535 | 15 | 360 | 8.0 | 0.0 | 0.00 | 0.00 | 0.00 | 74 | 1019.8 |
| 20260506213053 | 15 | 294 | 9.7 | 0.0 | 0.00 | 0.00 | 0.00 | 75 | 1019.7 |
| 20260506211513 | 15 | 44 | 9.7 | 0.0 | 0.00 | 0.00 | 0.00 | 73 | 1019.8 |
| 20260506210034 | 15 | 344 | 9.7 | 0.0 | 0.00 | 0.00 | 0.00 | 74 | 1019.6 |
| 20260506204556 | 15 | 315 | 8.0 | 0.0 | 0.00 | 0.00 | 0.00 | 72 | 1019.6 |
| 20260506203031 | 15 | 319 | 9.7 | 0.0 | 0.00 | 0.00 | 0.00 | 73 | 1019.7 |
| 20260506201513 | 14 | 304 | 9.7 | 0.0 | 0.00 | 0.00 | 0.00 | 73 | 1019.8 |
| 20260506200051 | 14 | 348 | 8.0 | 0.0 | 0.00 | 0.00 | 0.00 | 74 | 1020.0 |
| 20260506194531 | 14 | 9 | 6.4 | 0.0 | 0.00 | 0.00 | 0.00 | 75 | 1019.9 |
| 20260506193048 | 13 | 17 | 4.8 | 0.0 | 0.00 | 0.00 | 0.00 | 76 | 1019.8 |
| 20260506191558 | 13 | 289 | 3.2 | 0.0 | 0.00 | 0.00 | 0.00 | 80 | 1019.8 |
| 20260506184501 | 13 | 311 | 4.8 | 0.0 | 0.00 | 0.00 | 0.00 | 81 | 1019.9 |
| 20260506183017 | 12 | 319 | 4.8 | 0.0 | 0.00 | 0.00 | 0.00 | 83 | 1020.0 |
| 20260506181613 | 12 | 271 | 4.8 | 0.0 | 0.00 | 0.00 | 0.00 | 83 | 1020.0 |
| 20260506180018 | 12 | 5 | 6.4 | 0.0 | 0.00 | 0.00 | 0.00 | 83 | 1019.9 |
| 20260506174534 | 12 | 331 | 3.2 | 0.0 | 0.00 | 0.00 | 0.00 | 82 | 1019.6 |
| 20260506173056 | 12 | 22 | 1.6 | 0.0 | 0.00 | 0.00 | 0.00 | 83 | 1019.5 |
| 20260506171603 | 12 | 44 | 1.6 | 0.0 | 0.00 | 0.00 | 0.00 | 83 | 1019.5 |
| 20260506170017 | 12 | 303 | 0.0 | 0.0 | 0.00 | 0.00 | 0.00 | 84 | 1019.3 |
| 20260506164536 | 12 | 344 | 1.6 | 0.0 | 0.00 | 0.00 | 0.00 | 83 | 1019.5 |
| 20260506163051 | 11 | 333 | 3.2 | 0.0 | 0.00 | 0.00 | 0.00 | 83 | 1019.5 |
| 20260506161606 | 11 | 30 | 1.6 | 0.0 | 0.00 | 0.00 | 0.00 | 83 | 1019.2 |
| 20260506160038 | 11 | 308 | 3.2 | 0.0 | 0.00 | 0.00 | 0.00 | 84 | 1019.3 |
| 20260506154605 | 11 | 19 | 4.8 | 0.0 | 0.00 | 0.00 | 0.00 | 84 | 1019.2 |
| 20260506153043 | 11 | 270 | 1.6 | 0.0 | 0.00 | 0.00 | 0.00 | 84 | 1019.0 |
| 20260506151517 | 11 | 300 | 1.6 | 0.0 | 0.00 | 0.00 | 0.00 | 85 | 1018.5 |
| 20260506150033 | 11 | 5 | 0.0 | 0.0 | 0.00 | 0.00 | 0.00 | 84 | 1018.5 |
| 20260506144553 | 11 | 5 | 3.2 | 0.0 | 0.00 | 0.00 | 0.00 | 86 | 1019.0 |
| 20260506143103 | 11 | 360 | 3.2 | 0.0 | 0.00 | 0.00 | 0.00 | 87 | 1019.0 |
| 20260506141540 | 10 | 360 | 3.2 | 0.0 | 0.00 | 0.00 | 0.00 | 87 | 1019.0 |
| 20260506134536 | 10 | 321 | 3.2 | 0.0 | 0.00 | 0.00 | 0.00 | 88 | 1018.4 |
| 20260506133053 | 10 | 5 | 1.6 | 0.0 | 0.00 | 0.00 | 0.00 | 88 | 1018.4 |
| 20260506131606 | 10 | 10 | 3.2 | 0.0 | 0.00 | 0.00 | 0.00 | 89 | 1018.3 |
| 20260506130039 | 10 | 340 | 1.6 | 0.0 | 0.00 | 0.00 | 0.00 | 89 | 1018.1 |
| 20260506124559 | 10 | 355 | 1.6 | 0.0 | 0.00 | 0.00 | 0.00 | 89 | 1017.9 |
| 20260506123012 | 10 | 306 | 3.2 | 0.0 | 0.00 | 0.00 | 0.00 | 89 | 1017.8 |
| 20260506121523 | 10 | 333 | 3.2 | 0.0 | 0.00 | 0.00 | 0.00 | 89 | 1017.7 |
| 20260506120106 | 10 | 348 | 3.2 | 0.0 | 0.00 | 0.00 | 0.00 | 89 | 1017.7 |
| 20260506114527 | 10 | 317 | 3.2 | 0.0 | 0.00 | 0.00 | 0.00 | 89 | 1017.6 |
| 20260506113037 | 11 | 346 | 4.8 | 0.0 | 0.00 | 0.00 | 0.00 | 89 | 1017.6 |